#timestamp,LO_Frequency,Hit,StdDev 
1503648015.6,286047001.0,N,1.1
1503648035.4,286046998.7,N,1.1
1503648055.3,286046999.3,N,1.1
1503648075.1,286046998.3,N,1.2
1503648095.9,286046998.7,N,1.3
1503648115.7,286046998.9,N,1.3
1503648135.5,286046998.9,N,1.4
1503648155.4,286046998.4,N,1.5
1503648175.2,286046999.2,N,1.5
1503648195.1,286046997.4,N,1.6
1503648196.0,286046997.4,N,1.7
1503648215.8,286046997.7,N,1.8
1503648235.6,286046996.8,N,1.9
1503648255.5,286046996.5,N,2.1
1503648275.3,286046997.4,N,2.1
1503648295.2,286046995.2,N,2.2
1503648315.9,286046995.5,N,2.3
1503648335.7,286046995.3,N,2.4
1503648355.6,286046995.9,N,2.5
1503648375.4,286046993.5,N,2.6
1503648395.3,286046996.1,N,2.6
1503648415.1,286046996.0,N,2.5
1503648416.0,286046996.0,N,2.5
1503648435.8,286046994.8,N,2.5
1503648455.7,286046994.6,N,2.4
1503648475.5,286046994.1,N,2.3
1503648495.3,286046994.6,N,2.3
1503648515.2,286046994.4,N,2.1
1503648535.0,286046994.8,N,1.9
1503648535.9,286046994.8,N,1.9
1503648555.8,286046994.8,N,1.7
1503648575.6,286046992.2,Y,0.0
1503648595.4,286046995.4,P,0.5
1503648615.3,286046997.9,P,1.0
1503648635.1,286046995.2,P,1.1
1503648655.9,286046995.8,Y,0.0
1503648675.7,286046998.7,P,1.2
1503648695.5,286046998.7,N,1.2
1503648715.4,286047001.0,N,1.7
1503648735.2,286046998.4,N,1.5
1503648755.1,286046998.6,N,1.4
1503648756.0,286046998.6,N,1.3
1503648775.8,286046998.5,N,1.2
1503648795.6,286046998.3,N,1.1
1503648815.5,286046998.9,N,1.1
1503648835.3,286046998.8,N,1.0
1503648855.2,286046999.4,N,1.0
1503648875.9,286046996.7,Y,0.0
1503648895.7,286046998.6,P,0.0
1503648915.6,286046998.4,P,0.1
1503648935.4,286046998.7,P,0.1
1503648955.3,286046996.9,Y,0.0
1503648975.1,286047000.7,P,1.1
1503648976.0,286047000.7,N,1.0
1503648995.8,286047001.1,N,1.0
1503649015.7,286046999.9,N,0.9
1503649035.5,286047000.0,N,0.8
1503649055.3,286047000.0,N,0.8
1503649075.2,286047000.9,N,0.8
1503649095.0,286046998.1,N,1.0
1503649095.9,286046998.1,N,1.1
1503649115.8,286046998.1,N,1.1
1503649135.6,286047001.1,N,1.2
1503649155.4,286047001.0,N,1.2
1503649175.3,286046998.4,N,1.2
1503649195.1,286046998.3,N,1.2
1503649215.9,286046998.1,N,1.2
1503649235.7,286046998.7,N,1.2
1503649255.5,286047001.1,N,1.2
1503649275.4,286042185.5,Y,0.0
1503649295.2,286046999.0,P,0.3
1503649315.1,286047001.0,P,0.8
1503649316.0,286047001.0,N,0.9
1503649335.8,286046998.2,N,1.1
1503649355.6,286046998.6,N,1.1
1503649375.5,286046999.3,N,1.0
1503649395.3,286046996.5,Y,0.0
1503649415.2,286046999.0,P,0.3
1503649435.9,286046999.4,N,0.2
1503649455.7,286046999.3,P,0.2
1503649475.6,286046998.3,Y,0.0
1503649495.4,286047001.2,P,0.9
1503649515.3,286046998.2,N,1.2
1503649535.1,286046998.1,N,1.2
1503649555.8,286046998.7,N,1.1
1503649575.7,286046998.6,N,1.1
1503649595.5,286046998.3,N,1.0
1503649615.4,286046998.6,N,0.9
1503649635.2,286046998.6,N,0.9
1503649655.0,286046998.2,N,0.9
1503649655.9,286046998.2,N,0.8
1503649675.8,286047001.2,N,1.1
1503649695.6,286046998.4,N,1.0
1503649715.5,286046998.3,N,1.0
1503649735.3,286046998.8,N,1.0
1503649755.1,286046998.2,N,1.0
1503649775.9,286046998.2,N,0.9
1503649795.7,286046998.3,N,0.9
1503649815.6,286047001.0,N,1.0
1503649835.4,286047000.8,N,1.1
1503649855.2,286046998.9,N,1.1
1503649875.1,286046999.0,N,1.0
1503649876.0,286046999.0,N,1.0
1503649895.8,286046998.6,N,1.0
1503649915.6,286046998.1,N,1.0
1503649935.5,286046998.4,N,1.0
1503649955.3,286046998.3,N,1.0
1503649975.2,286047000.7,N,1.0
1503649995.9,286046998.6,N,1.0
1503650015.7,286047001.0,N,1.0
1503650035.6,286046998.5,N,1.0
1503650055.4,286046998.2,N,1.0
1503650075.3,286047000.5,N,1.0
1503650095.1,286046999.9,N,1.0
1503650096.0,286046999.9,N,1.0
1503650115.8,286047000.3,N,1.0
1503650135.7,286047002.3,N,1.2
1503650155.5,286047002.8,N,1.3
1503650175.4,286047002.3,N,1.4
1503650195.2,286047002.4,N,1.5
1503650215.0,286047001.3,N,1.5
1503650215.9,286047001.3,N,1.5
1503650235.8,286047001.4,N,1.5
1503650255.6,286047001.6,N,1.5
1503650275.5,286047002.5,N,1.6
1503650295.3,286047002.5,N,1.6
1503650315.1,286047002.4,N,1.6
1503650335.9,286047002.0,N,1.6
1503650355.7,286047002.7,N,1.6
1503650375.6,286047001.5,N,1.6
1503650395.4,286047001.5,N,1.6
1503650415.2,286047003.9,N,1.7
1503650435.1,286047004.1,N,1.7
1503650436.0,286047004.1,N,1.8
1503650455.8,286047004.3,N,1.7
1503650475.7,286047004.2,N,1.7
1503650495.5,286047003.8,N,1.7
1503650515.3,286047004.3,N,1.7
1503650535.2,286047003.5,N,1.6
1503650555.0,286047003.6,N,1.6
1503650555.9,286047003.6,N,1.5
1503650575.7,286047003.3,N,1.3
1503650595.6,286047005.6,Y,0.0
1503650615.4,286047002.2,P,0.1
1503650635.3,286047002.1,P,0.2
1503650655.1,286047002.0,P,0.2
1503650675.8,286047002.1,Y,0.0
1503650695.7,286047000.1,P,1.0
1503650715.5,286046999.7,N,1.1
1503650735.4,286047000.3,N,1.0
1503650755.2,286046999.8,N,0.9
1503650775.0,286047000.2,N,0.8
1503650775.9,286047000.2,N,0.8
1503650795.8,286047000.2,N,0.7
1503650815.6,286047000.1,N,0.7
1503650835.5,286047000.1,N,0.7
1503650855.3,286047002.8,Y,0.0
1503650875.1,286047001.2,P,0.5
1503650895.9,286047000.4,N,0.4
1503650915.7,286046999.7,N,0.5
1503650935.6,286047002.8,Y,0.0
1503650955.4,286047000.4,P,0.0
1503650975.2,286047000.1,P,0.1
1503650995.1,286047002.6,P,1.0
1503650996.0,286047002.6,N,1.1
1503651015.8,286047002.6,N,1.2
1503651035.6,286047002.3,N,1.1
1503651055.5,286047002.6,N,1.1
1503651075.3,286047002.4,N,1.1
1503651095.2,286047002.6,N,1.0
1503651115.9,286047002.3,N,1.0
1503651135.7,286047001.9,N,0.9
1503651155.6,286047001.5,N,0.9
1503651175.4,286047002.0,N,0.9
1503651195.3,286047001.3,N,0.9
1503651215.1,286047001.3,N,0.8
1503651235.8,286047001.3,N,0.8
1503651255.7,286047001.7,N,0.8
1503651275.5,286047003.9,Y,0.0
1503651295.4,286047002.4,P,0.3
1503651315.2,286047000.0,N,1.0
1503651335.0,286047002.3,N,1.0
1503651336.0,286047002.3,N,0.9
1503651355.8,286046999.8,N,1.1
1503651375.6,286047002.3,N,1.1
1503651395.5,286046999.9,N,1.1
1503651415.3,286047000.2,N,1.1
1503651435.2,286046999.8,N,1.2
1503651455.9,286047000.0,N,1.1
1503651475.7,286682706.0,Y,0.0
1503651495.6,286047001.1,P,0.1
1503651515.4,286047000.5,P,0.3
1503651535.2,286047000.6,N,0.3
1503651555.1,286047001.2,Y,0.0
1503651556.0,286047001.2,P,0.2
1503651575.8,286046998.4,P,1.2
1503651595.7,286047000.6,N,1.1
